星链-32828 (STARLINK-32828)

导读 | 星芒AI

STARLINK-32828 是SpaceX星链计划中的一颗低轨卫星,属于第三代星链卫星群(Starlink V1.5或后续型号)。该卫星由SpaceX制造并发射,旨在为全球提供高速互联网服务。它运行在约550公里高的近地轨道,具备先进通信技术,支持更广覆盖和更低延迟。作为星链网络的一部分,STARLINK-32828有助于提升偏远地区的网络接入能力,并增强整体星座的冗余与稳定性。

基本信息
目录编号:
63045
目录名称:
STARLINK-32828
国际标识:
2025-034S
轨道中心:
EARTH
卫星名称:
星链-32828
卫星全名:
星链-32828 (STARLINK-32828)
卫星状态:
在轨 (已飞行262 天)
发射日期:
2025-02-18 UTC
国别 :
美国 (US)
星等 :
--
轨道信息
数据来源 国际轨道数据 AOE轨道数据
星历时间 2025-11-06T19:45:14+0800
1天前
查看轨道信息
2025-11-05T04:00:00+0800
2天前
查看轨道信息
半长轴 6853.25km 6853.386km
偏心率 0.0001425 0.0001445
轨道倾角 53.157° 53.159°
近地点辐角 86.675° 66.124°
升交点赤经 123.203° 130.896°
平近点角 273.441° 164.145°
近地点 474.138km 474.26km
远地点 476.092km 476.242km
周期 94.103分钟 94.106分钟
每日圈数 15.302342 15.301887
详细信息
固有亮度:
5
最大亮度:
2.5
卫星平台:
Starlink V1.0
覆盖范围:
全球
运营商:
太空探索技术公司
运营商所在国:
美国
制造商(研发单位):
太空探索技术公司
制造商所在国:
美国
使用方式:
暂无
卫星简介
Starlink 计划是 SpaceX 推出的全球卫星互联网项目,通过发射低轨道卫星,为全球尤其是偏远地区提供高速、低延迟的互联网服务。自 2019 年起,Starlink 已部署数千颗卫星,旨在缩小全球数字鸿沟,推动互联网普及。该项目还为军事、航空等行业提供通信支持,带来广泛经济效益。
2D轨道图
3D轨道图
轨道高度分析图
轨道倾角分析图
轨道综合分析图
查看轨道综合分析图